Year,Month,Day,Hour,Minute,Value (Times are PST for temperature in C)
2013,08,22,08,56,19.30
2013,08,22,08,57,19.40
2013,08,22,08,58,19.40
2013,08,22,08,59,19.40
2013,08,22,09,00,19.50
2013,08,22,09,01,19.50
2013,08,22,09,02,19.60
2013,08,22,09,03,19.60
2013,08,22,09,04,19.70
2013,08,22,09,05,19.70
2013,08,22,09,06,19.70
2013,08,22,09,07,19.70
2013,08,22,09,08,19.70
2013,08,22,09,09,19.70
2013,08,22,09,10,19.70
2013,08,22,09,11,19.70
2013,08,22,09,12,19.60
2013,08,22,09,13,19.60
2013,08,22,09,14,19.60
2013,08,22,09,15,19.60
2013,08,22,09,16,19.60
2013,08,22,09,17,19.60
2013,08,22,09,18,19.70
2013,08,22,09,19,19.70
2013,08,22,09,20,19.70
2013,08,22,09,21,19.70
2013,08,22,09,22,19.70
2013,08,22,09,23,19.70
2013,08,22,09,24,19.70
2013,08,22,09,25,19.80
2013,08,22,09,26,19.80
2013,08,22,09,27,19.70
2013,08,22,09,28,19.80
2013,08,22,09,29,19.80
2013,08,22,09,30,19.90
2013,08,22,09,31,19.90
2013,08,22,09,32,19.90
2013,08,22,09,33,20.00
2013,08,22,09,34,20.00
2013,08,22,09,35,20.00
2013,08,22,09,36,20.10
2013,08,22,09,37,20.10
2013,08,22,09,38,20.10
2013,08,22,09,39,20.20
2013,08,22,09,40,20.20
2013,08,22,09,41,20.20
2013,08,22,09,42,20.30
2013,08,22,09,43,20.30
2013,08,22,09,44,20.30
2013,08,22,09,45,20.30
2013,08,22,09,46,20.30
2013,08,22,09,47,20.30
2013,08,22,09,48,20.40
2013,08,22,09,49,20.40
2013,08,22,09,50,20.40
2013,08,22,09,51,20.40
2013,08,22,09,52,20.40
2013,08,22,09,53,20.40
2013,08,22,09,54,20.40
2013,08,22,09,55,20.40
2013,08,22,09,56,20.50
2013,08,22,09,57,20.50
2013,08,22,09,58,20.50
2013,08,22,09,59,20.50
2013,08,22,10,00,20.50
2013,08,22,10,01,20.60
2013,08,22,10,02,20.70
2013,08,22,10,03,20.70
2013,08,22,10,04,20.80
2013,08,22,10,05,20.80
2013,08,22,10,06,20.80
2013,08,22,10,07,20.80
2013,08,22,10,08,20.80
2013,08,22,10,09,20.90
2013,08,22,10,10,20.90
2013,08,22,10,11,20.90
2013,08,22,10,12,21.00
2013,08,22,10,13,21.00
2013,08,22,10,14,21.10
2013,08,22,10,15,21.10
2013,08,22,10,16,21.10
2013,08,22,10,17,21.10
2013,08,22,10,18,21.00
2013,08,22,10,19,21.00
2013,08,22,10,20,21.00
2013,08,22,10,21,21.00
2013,08,22,10,22,21.00
2013,08,22,10,23,21.10
2013,08,22,10,24,21.10
2013,08,22,10,25,21.10
2013,08,22,10,26,21.10
2013,08,22,10,27,21.10
2013,08,22,10,28,21.10
2013,08,22,10,29,21.10
2013,08,22,10,30,21.10
2013,08,22,10,31,21.10
2013,08,22,10,32,21.10
2013,08,22,10,33,21.10
2013,08,22,10,34,21.10
2013,08,22,10,35,21.00
2013,08,22,10,36,21.00
2013,08,22,10,37,21.10
2013,08,22,10,38,21.10
2013,08,22,10,39,21.10
2013,08,22,10,40,21.10
2013,08,22,10,41,21.10
2013,08,22,10,42,21.10
2013,08,22,10,43,21.10
2013,08,22,10,44,21.00
2013,08,22,10,45,21.00
2013,08,22,10,46,21.00
2013,08,22,10,47,21.10
2013,08,22,10,48,21.10
2013,08,22,10,49,21.10
2013,08,22,10,50,21.10
2013,08,22,10,51,21.10
2013,08,22,10,52,21.20
2013,08,22,10,53,21.20
2013,08,22,10,54,21.30
2013,08,22,10,55,21.40
2013,08,22,10,56,21.50
2013,08,22,10,57,21.60
2013,08,22,10,58,21.70
2013,08,22,10,59,21.80
2013,08,22,11,00,21.80
2013,08,22,11,01,21.80
2013,08,22,11,02,21.80
2013,08,22,11,03,21.80
2013,08,22,11,04,21.80
2013,08,22,11,05,21.80
2013,08,22,11,06,21.80
2013,08,22,11,07,21.80
2013,08,22,11,08,21.80
2013,08,22,11,09,21.80
2013,08,22,11,10,21.70
2013,08,22,11,11,21.70
2013,08,22,11,12,21.70
2013,08,22,11,13,21.80
2013,08,22,11,14,21.80
2013,08,22,11,15,21.70
2013,08,22,11,16,21.70
2013,08,22,11,17,21.70
2013,08,22,11,18,21.70
2013,08,22,11,19,21.70
2013,08,22,11,20,21.70
2013,08,22,11,21,21.70
2013,08,22,11,22,21.60
2013,08,22,11,23,21.60
2013,08,22,11,24,21.50
2013,08,22,11,25,21.50
2013,08,22,11,26,21.50
2013,08,22,11,27,21.50
2013,08,22,11,28,21.60
2013,08,22,11,29,21.70
2013,08,22,11,30,21.70
2013,08,22,11,31,21.80
2013,08,22,11,32,21.80
2013,08,22,11,33,21.80
2013,08,22,11,34,21.80
2013,08,22,11,35,21.70
2013,08,22,11,36,21.70
2013,08,22,11,37,21.70
2013,08,22,11,38,21.80
2013,08,22,11,39,21.80
2013,08,22,11,40,21.80
2013,08,22,11,41,21.80
2013,08,22,11,42,21.80
2013,08,22,11,43,21.80
2013,08,22,11,44,21.80
2013,08,22,11,45,21.80
2013,08,22,11,46,21.80
2013,08,22,11,47,21.80
2013,08,22,11,48,21.80
2013,08,22,11,49,21.80
2013,08,22,11,50,21.80
2013,08,22,11,51,21.80
2013,08,22,11,52,21.80
2013,08,22,11,53,21.70
2013,08,22,11,54,21.60
2013,08,22,11,55,21.50
2013,08,22,11,56,21.50
2013,08,22,11,57,21.50
2013,08,22,11,58,21.50
2013,08,22,11,59,21.60
2013,08,22,12,00,21.50
2013,08,22,12,01,21.60
2013,08,22,12,02,21.60
2013,08,22,12,03,21.60
2013,08,22,12,04,21.60
2013,08,22,12,05,21.60
2013,08,22,12,06,21.70
2013,08,22,12,07,21.70
2013,08,22,12,08,21.70
2013,08,22,12,09,21.70
2013,08,22,12,10,21.70
2013,08,22,12,11,21.70
2013,08,22,12,12,21.70
2013,08,22,12,13,21.80
2013,08,22,12,14,21.80
2013,08,22,12,15,21.80
2013,08,22,12,16,21.70
2013,08,22,12,17,21.70
2013,08,22,12,18,21.70
2013,08,22,12,19,21.70
2013,08,22,12,20,21.70
2013,08,22,12,21,21.70
2013,08,22,12,22,21.70
2013,08,22,12,23,21.70
2013,08,22,12,24,21.80
2013,08,22,12,25,21.80
2013,08,22,12,26,21.80
2013,08,22,12,27,21.80
2013,08,22,12,28,21.80
2013,08,22,12,29,21.80
2013,08,22,12,30,21.80
2013,08,22,12,31,21.80
2013,08,22,12,32,21.80
2013,08,22,12,33,21.80
2013,08,22,12,34,21.80
2013,08,22,12,35,21.80
2013,08,22,12,36,21.80
2013,08,22,12,37,21.90
2013,08,22,12,38,21.90
2013,08,22,12,39,22.00
2013,08,22,12,40,22.10
2013,08,22,12,41,22.20
2013,08,22,12,42,22.30
2013,08,22,12,43,22.30
2013,08,22,12,44,22.30
2013,08,22,12,45,22.30
2013,08,22,12,46,22.40
2013,08,22,12,47,22.50
2013,08,22,12,48,22.50
2013,08,22,12,49,22.60
2013,08,22,12,50,22.60
2013,08,22,12,51,22.60
2013,08,22,12,52,22.60
2013,08,22,12,53,22.60
2013,08,22,12,54,22.60
2013,08,22,12,55,22.60
2013,08,22,12,56,22.60
2013,08,22,12,57,22.70
2013,08,22,12,58,22.70
2013,08,22,12,59,22.70
2013,08,22,13,00,22.70
2013,08,22,13,01,22.80
2013,08,22,13,02,22.80
2013,08,22,13,03,22.90
2013,08,22,13,04,23.00
2013,08,22,13,05,23.10
2013,08,22,13,06,23.10
2013,08,22,13,07,23.10
2013,08,22,13,08,23.20
2013,08,22,13,09,23.20
2013,08,22,13,10,23.20
2013,08,22,13,11,23.10
2013,08,22,13,12,23.10
2013,08,22,13,13,23.00
2013,08,22,13,14,22.90
2013,08,22,13,15,23.00
2013,08,22,13,16,22.90
2013,08,22,13,17,23.00
2013,08,22,13,18,23.00
2013,08,22,13,19,23.10
2013,08,22,13,20,23.20
2013,08,22,13,21,23.10
2013,08,22,13,22,23.10
2013,08,22,13,23,23.10
2013,08,22,13,24,23.10
2013,08,22,13,25,23.20
2013,08,22,13,26,23.20
2013,08,22,13,27,23.10
2013,08,22,13,28,23.20
2013,08,22,13,29,23.20
2013,08,22,13,30,23.30
2013,08,22,13,31,23.40
2013,08,22,13,32,23.40
2013,08,22,13,33,23.50
2013,08,22,13,34,23.50
2013,08,22,13,35,23.60
2013,08,22,13,36,23.60
2013,08,22,13,37,23.70
2013,08,22,13,38,23.80
2013,08,22,13,39,23.80
2013,08,22,13,40,23.80
2013,08,22,13,41,23.90
2013,08,22,13,42,23.90
2013,08,22,13,43,23.90
2013,08,22,13,44,23.90
2013,08,22,13,45,23.90
2013,08,22,13,46,23.90
2013,08,22,13,47,24.00
2013,08,22,13,48,24.00
2013,08,22,13,49,24.00
2013,08,22,13,50,24.10
2013,08,22,13,51,24.10
2013,08,22,13,52,24.20
2013,08,22,13,53,24.20
2013,08,22,13,54,24.30
2013,08,22,13,55,24.30
2013,08,22,13,56,24.30
2013,08,22,13,57,24.30
2013,08,22,13,58,24.40
2013,08,22,13,59,24.50
2013,08,22,14,00,24.60
2013,08,22,14,01,24.50
2013,08,22,14,02,24.40
2013,08,22,14,03,24.30
2013,08,22,14,04,24.20
2013,08,22,14,05,24.20
2013,08,22,14,06,24.10
2013,08,22,14,07,24.10
2013,08,22,14,08,24.00
2013,08,22,14,09,23.90
2013,08,22,14,10,23.90
2013,08,22,14,11,23.90
2013,08,22,14,12,23.90
2013,08,22,14,13,23.90
2013,08,22,14,14,23.90
2013,08,22,14,15,23.90
2013,08,22,14,16,23.90
2013,08,22,14,17,23.80
2013,08,22,14,18,23.70
2013,08,22,14,19,23.60
2013,08,22,14,20,23.60
2013,08,22,14,21,23.60
2013,08,22,14,22,23.50
2013,08,22,14,23,23.40
2013,08,22,14,24,23.50
2013,08,22,14,25,23.60
2013,08,22,14,26,23.70
2013,08,22,14,27,23.80
2013,08,22,14,28,23.80
2013,08,22,14,29,23.70
2013,08,22,14,30,23.70
2013,08,22,14,31,23.70
2013,08,22,14,32,23.70
2013,08,22,14,33,23.70
2013,08,22,14,34,23.60
2013,08,22,14,35,23.60
2013,08,22,14,36,23.50
2013,08,22,14,37,23.50
2013,08,22,14,38,23.60
2013,08,22,14,39,23.70
2013,08,22,14,40,23.80
2013,08,22,14,41,23.80
2013,08,22,14,42,23.80
2013,08,22,14,43,23.90
2013,08,22,14,44,23.90
2013,08,22,14,45,23.90
2013,08,22,14,46,24.00
2013,08,22,14,47,24.10
2013,08,22,14,48,24.10
2013,08,22,14,49,24.00
2013,08,22,14,50,24.00
2013,08,22,14,51,24.00
2013,08,22,14,52,24.00
2013,08,22,14,53,24.10
2013,08,22,14,54,24.10
2013,08,22,14,55,24.10
2013,08,22,14,56,24.10
2013,08,22,14,57,24.10
2013,08,22,14,58,24.00
2013,08,22,14,59,23.90
2013,08,22,15,00,23.80
2013,08,22,15,01,23.70
2013,08,22,15,02,23.70
2013,08,22,15,03,23.60
2013,08,22,15,04,23.60
2013,08,22,15,05,23.60
2013,08,22,15,06,23.60
2013,08,22,15,07,23.70
2013,08,22,15,08,23.60
2013,08,22,15,09,23.60
2013,08,22,15,10,23.60
2013,08,22,15,11,23.60
2013,08,22,15,12,23.70
2013,08,22,15,13,23.70
2013,08,22,15,14,23.80
2013,08,22,15,15,23.90
2013,08,22,15,16,24.00
2013,08,22,15,17,24.10
2013,08,22,15,18,24.20
2013,08,22,15,19,24.40
2013,08,22,15,20,24.50
2013,08,22,15,21,24.70
2013,08,22,15,22,24.80
2013,08,22,15,23,25.00
2013,08,22,15,24,25.10
2013,08,22,15,25,25.10
2013,08,22,15,26,25.10
2013,08,22,15,27,25.10
2013,08,22,15,28,25.00
2013,08,22,15,29,25.10
2013,08,22,15,30,25.10
2013,08,22,15,31,25.10
2013,08,22,15,32,25.10
2013,08,22,15,33,25.10
2013,08,22,15,34,25.00
2013,08,22,15,35,25.00
2013,08,22,15,36,25.00
2013,08,22,15,37,25.10
2013,08,22,15,38,25.10
2013,08,22,15,39,25.10
2013,08,22,15,40,25.20
2013,08,22,15,41,25.30
2013,08,22,15,42,25.30
2013,08,22,15,43,25.40
2013,08,22,15,44,25.50
2013,08,22,15,45,25.60
2013,08,22,15,46,25.60
2013,08,22,15,47,25.50
2013,08,22,15,48,25.40
2013,08,22,15,49,25.30
2013,08,22,15,50,25.30
2013,08,22,15,51,25.30
2013,08,22,15,52,25.20
2013,08,22,15,53,25.20
2013,08,22,15,54,25.10
2013,08,22,15,55,25.10
2013,08,22,15,56,25.00
2013,08,22,15,57,24.90
2013,08,22,15,58,24.90
2013,08,22,15,59,24.90
2013,08,22,16,00,24.80
2013,08,22,16,01,24.80
2013,08,22,16,02,24.90
2013,08,22,16,03,24.90
2013,08,22,16,04,24.90
2013,08,22,16,05,24.80
2013,08,22,16,06,24.80
2013,08,22,16,07,24.90
2013,08,22,16,08,24.90
2013,08,22,16,09,25.00
2013,08,22,16,10,25.10
2013,08,22,16,11,25.10
2013,08,22,16,12,25.10
2013,08,22,16,13,25.10
2013,08,22,16,14,25.00
2013,08,22,16,15,25.00
2013,08,22,16,16,25.00
2013,08,22,16,17,25.10
2013,08,22,16,18,25.10
2013,08,22,16,19,25.10
2013,08,22,16,20,25.20
2013,08,22,16,21,25.20
2013,08,22,16,22,25.30
2013,08,22,16,23,25.30
2013,08,22,16,24,25.30
2013,08,22,16,25,25.40
2013,08,22,16,26,25.40
2013,08,22,16,27,25.40
2013,08,22,16,28,25.40
2013,08,22,16,29,25.40
2013,08,22,16,30,25.40
2013,08,22,16,31,25.40
2013,08,22,16,32,25.50
2013,08,22,16,33,25.50
2013,08,22,16,34,25.50
2013,08,22,16,35,25.60
2013,08,22,16,36,25.60
2013,08,22,16,37,25.60
2013,08,22,16,38,25.70
2013,08,22,16,39,25.70
2013,08,22,16,40,25.80
2013,08,22,16,41,25.80
2013,08,22,16,42,25.80
2013,08,22,16,43,25.80
2013,08,22,16,44,25.90
2013,08,22,16,45,25.90
2013,08,22,16,46,25.90
2013,08,22,16,47,25.90
2013,08,22,16,48,25.90
2013,08,22,16,49,25.90
2013,08,22,16,50,25.90
2013,08,22,16,51,25.80
2013,08,22,16,52,25.70
2013,08,22,16,53,25.60
2013,08,22,16,54,25.60
2013,08,22,16,55,25.60
2013,08,22,16,56,25.50
2013,08,22,16,57,25.50
2013,08,22,16,58,25.40
2013,08,22,16,59,25.40
2013,08,22,17,00,25.30
2013,08,22,17,01,25.30
2013,08,22,17,02,25.30
2013,08,22,17,03,25.30
2013,08,22,17,04,25.40
2013,08,22,17,05,25.50
2013,08,22,17,06,25.60
2013,08,22,17,07,25.70
2013,08,22,17,08,25.80
2013,08,22,17,09,25.80
2013,08,22,17,10,25.90
2013,08,22,17,11,25.90
2013,08,22,17,12,25.90
2013,08,22,17,13,26.00
2013,08,22,17,14,26.00
2013,08,22,17,15,26.10
2013,08,22,17,16,26.30
2013,08,22,17,17,26.30
2013,08,22,17,18,26.40
2013,08,22,17,19,26.50
2013,08,22,17,20,26.60
2013,08,22,17,21,26.70
2013,08,22,17,22,26.70
2013,08,22,17,23,26.70
2013,08,22,17,24,26.70
2013,08,22,17,25,26.70
2013,08,22,17,26,26.70
2013,08,22,17,27,26.80
2013,08,22,17,28,26.80
2013,08,22,17,29,26.80
2013,08,22,17,30,26.70
2013,08,22,17,31,26.70
2013,08,22,17,32,26.70
2013,08,22,17,33,26.70
2013,08,22,17,34,26.70
2013,08,22,17,35,26.70
2013,08,22,17,36,26.60
2013,08,22,17,37,26.60
2013,08,22,17,38,26.60
2013,08,22,17,39,26.50
2013,08,22,17,40,26.50
2013,08,22,17,41,26.30
2013,08,22,17,42,26.20
2013,08,22,17,43,26.00
2013,08,22,17,44,25.90
2013,08,22,17,45,25.80
2013,08,22,17,46,25.70
2013,08,22,17,47,25.60
2013,08,22,17,48,25.50
2013,08,22,17,49,25.40
2013,08,22,17,50,25.40
2013,08,22,17,51,25.40
2013,08,22,17,52,25.40
2013,08,22,17,53,25.30
2013,08,22,17,54,25.30
2013,08,22,17,55,25.30
2013,08,22,17,56,25.20
2013,08,22,17,57,25.20
2013,08,22,17,58,25.20
2013,08,22,17,59,25.20
2013,08,22,18,00,25.20
2013,08,22,18,01,25.20
2013,08,22,18,02,25.20
2013,08,22,18,03,25.20
2013,08,22,18,04,25.30
2013,08,22,18,05,25.30
2013,08,22,18,06,25.40
2013,08,22,18,07,25.40
2013,08,22,18,08,25.50
2013,08,22,18,09,25.60
2013,08,22,18,10,25.70
2013,08,22,18,11,25.80
2013,08,22,18,12,25.90
2013,08,22,18,13,26.00
2013,08,22,18,14,26.10
2013,08,22,18,15,26.20
2013,08,22,18,16,26.30
2013,08,22,18,17,26.40
2013,08,22,18,18,26.40
2013,08,22,18,19,26.50
2013,08,22,18,20,26.60
2013,08,22,18,21,26.60
2013,08,22,18,22,26.60
2013,08,22,18,23,26.60
2013,08,22,18,24,26.50
2013,08,22,18,25,26.40
2013,08,22,18,26,26.40
2013,08,22,18,27,26.40
2013,08,22,18,28,26.30
2013,08,22,18,29,26.30
2013,08,22,18,30,26.30
2013,08,22,18,31,26.30
2013,08,22,18,32,26.30
2013,08,22,18,33,26.20
2013,08,22,18,34,26.10
2013,08,22,18,35,26.10
2013,08,22,18,36,26.00
2013,08,22,18,37,25.90
2013,08,22,18,38,25.90
2013,08,22,18,39,25.70
2013,08,22,18,40,25.60
2013,08,22,18,41,25.50
2013,08,22,18,42,25.30
2013,08,22,18,43,25.20
2013,08,22,18,44,25.00
2013,08,22,18,45,24.90
2013,08,22,18,46,24.90
2013,08,22,18,47,24.80
2013,08,22,18,48,24.60
2013,08,22,18,49,24.50
2013,08,22,18,50,24.40
2013,08,22,18,51,24.30
2013,08,22,18,52,24.20
2013,08,22,18,53,24.20
2013,08,22,18,54,24.10
2013,08,22,18,55,24.10
2013,08,22,18,56,24.10
2013,08,22,18,57,24.10
2013,08,22,18,58,24.00
2013,08,22,18,59,24.00
2013,08,22,19,00,24.00
2013,08,22,19,01,24.00
2013,08,22,19,02,23.90
2013,08,22,19,03,23.90
2013,08,22,19,04,23.90
2013,08,22,19,05,23.90
2013,08,22,19,06,23.90
2013,08,22,19,07,23.90
2013,08,22,19,08,23.90
2013,08,22,19,09,23.90
2013,08,22,19,10,23.90
2013,08,22,19,11,23.90
2013,08,22,19,12,23.90
2013,08,22,19,13,23.90
